Regional Weather Roundup
Issued by NWS

Home | Current Version | Previous Version | Text Only | Print | Product List | Glossary Off
Versions: 1 2 3 4 5 6 7 8 9 10 11 12 13 14 15 16 17 18 19 20 21 22 23 24 25 26 27 28 29 30 31 32 33 34 35 36 37 38 39 40 41 42 43 44 45 46 47 48 49 50

000
ASUS43 KMKX 201711
RWRWI

WISCONSIN REGIONAL WEATHER ROUNDUP
NATIONAL WEATHER SERVICE MILWAUKEE/SULLIVAN WI
1200 PM CDT MON OCT 20 2014

NOTE: "FAIR" INDICATES FEW OR NO CLOUDS BELOW 12,000 FEET WITH NO
SIGNIFICANT WEATHER AND/OR OBSTRUCTIONS TO VISIBILITY.

WIZ001-002-006>008-014>016-023>028-201800-
NORTHWEST WISCONSIN

CITY           SKY/WX    TMP DP  RH WIND       PRES   REMARKS
SUPERIOR ARPT  CLOUDY    52  44  74 NW9       29.99S
ASHLAND        CLOUDY    53  41  63 NW12      29.97R
HAYWARD        CLOUDY    52  40  63 N6        29.97R
SIREN          PTSUNNY   54  40  58 N7        29.99R
CUMBERLAND     PTSUNNY   52  39  62 N9        29.98R
RICE LAKE      CLOUDY    54  39  58 N8G17     29.98S
CHETEK         CLOUDY    53  41  64 NW5       29.97S
LADYSMITH      CLOUDY    53  41  65 N12G17    29.97R
EAU CLAIRE     PTSUNNY   58  41  53 N12       29.96S
MENOMONIE      PTSUNNY   57  43  57 NW9       29.97S
NEW RICHMOND   MOSUNNY   56  41  58 N7        29.99S
OSCEOLA        PTSUNNY   56  43  61 N9G16     30.01S
$$

WIZ003>005-009-010-017-018-201800-
NORTH CENTRAL WISCONSIN

CITY           SKY/WX    TMP DP  RH WIND       PRES   REMARKS
MANITOWISH WTR CLOUDY    46  43  90 NW3       29.92R
ARBOR VITAE    DRIZZLE   48  45  88 N7        29.91S
WOODRUFF       DRIZZLE   48  45  88 N7        29.91S
RHINELANDER    PTSUNNY   48  42  80 N7        29.91R
EAGLE RIVER    CLOUDY    46  44  95 N10       29.90R
LAND O LAKES   CLOUDY    47  44  87 N9        29.91R
PHILLIPS       CLOUDY    48  41  78 NW9       29.93R
TOMAHAWK       CLOUDY    48  42  81 NW10G16   29.92S
MEDFORD        CLOUDY    49  41  71 N13G18    29.93R
MERRILL        CLOUDY    51  43  72 N7        29.91S
$$

WIZ029-030-035-036-043>047-201800-
CENTRAL WISCONSIN

CITY           SKY/WX    TMP DP  RH WIND       PRES   REMARKS
WAUSAU         CLOUDY    51  42  71 N9        29.90R
MOSINEE        CLOUDY    52  45  76 N14       29.92R
MARSHFIELD     PTSUNNY   53  42  66 NW16      29.92R
STEVENS POINT  PTSUNNY   51  41  66 N13       29.91S
WAUPACA        CLOUDY    54  46  73 NW6       29.90S
WAUTOMA        CLOUDY    56  39  52 NW17G24   29.91R
WISC RAPIDS    MOSUNNY   56  41  57 NW15G22   29.93S
CAMP DOUGLAS   PTSUNNY   55  43  62 NW13      29.92S
$$

WIZ011>013-019>022-031-037>040-048>050-201800-
NORTHEAST WISCONSIN

CITY           SKY/WX    TMP DP  RH WIND       PRES   REMARKS
ANTIGO         LGT RAIN  47  44  89 NW10      29.90S
SHAWANO        CLOUDY    53  43  69 NW10      29.89S
OCONTO         CLOUDY    51  44  78 NW12      29.87R
STURGEON BAY   CLOUDY    50  43  76 NW10      29.86S
GREEN BAY      CLOUDY    52  45  77 NW9       29.87R
MANITOWOC      CLOUDY    53  46  77 N10       29.86R
APPLETON       CLOUDY    52  43  71 NW9       29.89R
CLINTONVILLE   CLOUDY    52  41  66 NW13      29.89R
OSHKOSH        CLOUDY    52  45  77 NW7       29.88R
$$

WIZ032>034-041-042-053>061-201800-
SOUTHWEST WISCONSIN

CITY           SKY/WX    TMP DP  RH WIND       PRES   REMARKS
LA CROSSE      MOSUNNY   61  45  55 NW12      29.95R
SPARTA         MOSUNNY   59  39  47 NW13G23   29.94S
VIROQUA        MOSUNNY   59  43  55 N14G20    29.93F
BOSCOBEL       MOSUNNY   64  44  48 NW8G23    29.94F
PRAIRIE DU CHI SUNNY     62  42  48 NW9G16    29.95S
PLATTEVILLE    SUNNY     61  44  53 NW17G23   29.94S
$$

WIZ056-057-062-063-064-067-068-201800-
SOUTH CENTRAL WISCONSIN

CITY           SKY/WX    TMP DP  RH WIND       PRES   REMARKS
REEDSBURG      PTSUNNY   58  44  59 NW12      29.91S
BARABOO/DELLS  CLOUDY    56  40  54 N7        29.91S
LONE ROCK      MOSUNNY   64  43  46 NW14G24   29.92S
MINERAL POINT  MOSUNNY   61  41  48 NW15G22   29.92S
MADISON        MOSUNNY   59  41  51 NW16G26   29.90R
MIDDLETON      MOSUNNY   61  41  48 NW17G23   29.90S
WATERTOWN      CLOUDY    56  45  66 N10       29.88R
MONROE         SUNNY     59  43  55 NW13G22   29.90S
JANESVILLE     SUNNY     61  45  55 NW15      29.87S
$$

WIZ051-052-058>065-066-070>072-201800-
SOUTHEAST WISCONSIN

CITY           SKY/WX    TMP DP  RH WIND       PRES   REMARKS
MILWAUKEE      MOSUNNY   59  46  62 NW12      29.85S
WAUKESHA       MOSUNNY   55  46  71 NW10      29.86S
MILWAUKEE/TIMM NOT AVBL
RACINE         MOSUNNY   60  47  61 NE13      29.86S
BURLINGTON     SUNNY     58  45  60 N13G20    29.86R
KENOSHA        SUNNY     60  47  61 N9        29.85S
FOND DU LAC    CLOUDY    53  44  71 NW14      29.89R
SHEBOYGAN      CLOUDY    55  45  68 NW9       29.86R
WEST BEND      PTSUNNY   55  43  62 NW9       29.86R
JUNEAU         CLOUDY    54  44  69 NW10G17   29.89R
$$

LSZ147-162-201800-
LAKE SUPERIOR

STATION/POSITION TIME  TEMP    WIND        PRES    WAVE
                       AIR SEA DIR/SP/G            HT/PER
                 (UTC) (F)     (DEG/KT/KT) (MB)    (FT/S)
W MID LAKE BUOY  1650   47 46  300/  8/  8 1013.8R   1
DEVILS ISLAND    1700   49     330/ 11/ 12 1014.9R
PORT WING        1600   49     300/ 10/ 11 1014.9R
SAXON HARBOR     1600   51     330/ 10/ 11 1013.9R
$$

LMZ867-665-643>646-201800-
LAKE MICHIGAN

STATION/POSITION TIME  TEMP    WIND        PRES    WAVE
                       AIR SEA DIR/SP/G            HT/PER
                 (UTC) (F)     (DEG/KT/KT) (MB)    (FT/S)
CHAMBERS ISLAND  1600   50     310/ 16/ 20 1010.5S
N MID LAKE BUOY  1650   49 52  330/ 17/ 19 1010.2R   3/ 4
NORTHPORT PIER   1600   50     330/ 17/ 20 1010.8R
KEWAUNEE LAKESHO 1600   52     350/  5/  8 1009.9R
SHEBOYGAN LAKESH 1700   52 50   10/  8/  9 1011.5R
PORT WASHINGTON  1600   55     350/  6/ 13 1011.2S
ATWATER BUOY     1600   53     310/  6/  8 1011.7F
MILWAUKEE LAKESH 1600   55     330/  6/  9   N/A
S MID LAKE BUOY  1650   53 55  320/ 12/ 16 1010.2S   2/ 5
KENOSHA   LAKESH 1700   55      20/  4/ 10 1010.8R
$$

TC  - TEMPERATURE IN CELSIUS
VSB - VISIBILITY IN STATUTE MILES
WCI - WIND CHILL INDEX
HX  - HEAT INDEX




USA.gov is the U.S. government's official web portal to all federal, state and local government web resources and services.